Stations météo

réclame
Mon MeteoGroup
Estepona, Espagne (8463): Température de l'air & dewpoint: 09.08.2018 01:00:00 - 15.08.2018 01:00:00 (CEST)Estepona, Espagne (8463): Vitesse du vent & gusts: 09.08.2018 01:00:00 - 15.08.2018 01:00:00 (CEST)Estepona, Espagne (8463): Direction du vent: 09.08.2018 01:00:00 - 15.08.2018 01:00:00 (CEST)Estepona, Espagne (8463): reduced air pressure: 09.08.2018 01:00:00 - 15.08.2018 01:00:00 (CEST)Estepona, Espagne (8463): visibility: 09.08.2018 01:00:00 - 15.08.2018 01:00:00 (CEST)Estepona, Espagne (8463): Ensoleillement: 09.08.2018 01:00:00 - 15.08.2018 01:00:00 (CEST)Estepona, Espagne (8463): Quantités de précipitations: 09.08.2018 01:00:00 - 15.08.2018 01:00:00 (CEST)
Date & Time tt [°C] td [°C] ff [km/h] ff [knt] fx [km/h] fx [knt] dd ppp [hPa] vv [km] sd [min] rr [mm]
15.08.2018 01:00:00 - - - - - - - - - - -
15.08.2018 00:00:00 25,6 13,5 10 5 23 12 NE 1016,7 19 0 0,0
14.08.2018 23:00:00 24,6 17,1 8 4 18 10 ENE 1016,1 16 0 0,0
14.08.2018 22:00:00 27,6 16,6 10 5 25 14 ENE 1015,0 16 0 0,0
14.08.2018 21:00:00 32,5 12,6 13 7 32 18 W 1014,2 17 32 0,0
14.08.2018 20:00:00 35,6 12,5 14 8 35 19 W 1014,2 20 60 -
14.08.2018 19:00:00 36,6 12,1 16 9 34 18 WSW 1014,4 20 60 0,0
14.08.2018 18:00:00 37,4 12,1 18 10 36 19 WSW 1014,7 15 60 0,0
14.08.2018 17:00:00 37,4 9,9 20 11 35 19 WSW 1014,9 20 60 0,0
14.08.2018 16:00:00 37,2 10,5 19 10 39 21 WSW 1015,2 19 60 0,0
14.08.2018 15:00:00 35,3 12,3 18 10 32 17 WSW 1015,5 16 53 0,0
14.08.2018 14:00:00 35,8 11,4 17 9 38 21 WSW 1015,8 14 60 -
14.08.2018 13:00:00 34,4 12,1 17 9 36 19 WSW 1016,0 20 60 0,0
14.08.2018 12:00:00 31,4 11,8 11 6 23 13 W 1016,0 17 60 0,0
14.08.2018 11:00:00 26,3 17,9 7 4 12 6 E 1016,0 10 60 0,0
14.08.2018 10:00:00 24,2 18,4 4 2 13 7 ESE 1015,7 17 28 0,0
14.08.2018 09:00:00 22,1 17,2 2 1 6 4 ESE 1015,4 18 39 0,0
14.08.2018 08:00:00 20,4 14,7 2 1 5 3 W 1014,9 15 0 -
14.08.2018 07:00:00 20,9 13,4 2 1 7 4 NE 1014,5 14 0 0,0
14.08.2018 06:00:00 21,3 13,3 2 1 7 4 NW 1014,2 19 0 0,0
14.08.2018 05:00:00 21,3 13,8 2 1 5 3 NNE 1014,2 16 0 0,0
14.08.2018 04:00:00 22,1 14,2 1 1 7 4 W 1014,2 14 0 0,0
14.08.2018 03:00:00 22,9 15,0 3 2 8 5 NW 1014,3 17 0 0,0
14.08.2018 02:00:00 23,4 12,4 3 2 10 5 ENE 1014,1 11 0 -
14.08.2018 01:00:00 24,1 13,1 2 1 8 4 SSW 1014,1 12 0 0,0
14.08.2018 00:00:00 25,0 11,2 1 1 11 6 N 1013,9 20 0 0,0
13.08.2018 23:00:00 26,8 12,1 5 3 10 6 WSW 1013,8 18 0 0,0
13.08.2018 22:00:00 30,2 10,6 8 5 27 14 W 1013,1 18 0 0,0
13.08.2018 21:00:00 31,6 10,3 13 7 39 21 W 1012,6 18 34 0,0
13.08.2018 20:00:00 34,2 10,0 20 11 40 22 WSW 1012,6 20 60 -
13.08.2018 19:00:00 34,8 11,2 19 11 46 25 W 1012,7 17 60 0,0
13.08.2018 18:00:00 28,5 17,7 5 3 18 10 ESE 1013,5 10 60 0,0
13.08.2018 17:00:00 26,9 19,0 14 7 25 14 E 1014,0 9 60 0,0
13.08.2018 16:00:00 26,8 19,6 15 8 25 14 E 1014,5 10 60 0,0
13.08.2018 15:00:00 - - - - - - - - - - -
13.08.2018 14:00:00 25,9 19,8 14 7 25 14 E 1015,9 9 60 -
13.08.2018 13:00:00 25,7 19,6 16 8 26 14 E 1016,3 9 60 0,0
13.08.2018 12:00:00 25,2 19,3 11 6 18 10 E 1016,3 11 60 0,0
13.08.2018 11:00:00 22,9 20,1 3 1 8 4 S 1016,1 12 60 0,0
13.08.2018 10:00:00 21,5 19,3 4 2 6 4 E 1016,0 3,4 27 0,0
13.08.2018 09:00:00 21,3 18,8 5 3 8 5 E 1015,5 0,4 34 0,0
13.08.2018 08:00:00 21,4 19,0 3 1 8 5 W 1015,3 0,8 0 -
13.08.2018 07:00:00 21,4 19,0 2 1 9 5 SSE 1015,2 0,3 0 0,0
13.08.2018 06:00:00 - - - - - - - - - - -
13.08.2018 05:00:00 22,7 20,1 4 2 8 4 SW 1014,9 0,8 0 0,0
13.08.2018 04:00:00 23,0 20,1 4 2 8 4 SSW 1015,2 1,3 0 0,0
13.08.2018 03:00:00 23,1 20,3 3 2 6 4 SW 1015,6 2,8 0 0,0
13.08.2018 02:00:00 23,5 20,5 4 2 6 4 SE 1016,0 0,9 0 -
13.08.2018 01:00:00 23,8 20,5 5 3 11 6 WSW 1016,4 5 0 0,0
13.08.2018 00:00:00 23,4 20,0 5 3 7 4 WSW 1016,5 6 0 0,0
12.08.2018 23:00:00 24,0 19,9 3 2 6 3 SSE 1016,4 3,3 0 0,0
12.08.2018 22:00:00 25,1 19,9 4 2 9 5 WSW 1015,7 8 0 0,0
12.08.2018 21:00:00 26,8 20,2 6 3 9 5 WSW 1015,3 10 34 0,0
12.08.2018 20:00:00 29,0 20,5 4 2 6 4 SW 1015,5 12 60 -
12.08.2018 19:00:00 28,9 20,9 4 2 13 7 ESE 1016,2 9 60 0,0
12.08.2018 18:00:00 29,1 20,8 6 4 14 7 E 1016,4 9 60 0,0
12.08.2018 17:00:00 28,8 20,8 8 4 17 9 E 1016,8 11 60 0,0
12.08.2018 16:00:00 28,2 20,5 8 4 19 11 E 1017,4 9 60 0,0
12.08.2018 15:00:00 28,4 20,4 12 6 21 12 E 1018,0 8 4 0,0
12.08.2018 14:00:00 27,7 19,8 12 6 24 13 E 1018,5 8 54 -
12.08.2018 13:00:00 27,3 19,6 16 9 27 14 E 1018,9 11 26 0,0
12.08.2018 12:00:00 26,6 19,2 16 9 26 14 ENE 1019,0 7 15 0,0
12.08.2018 11:00:00 - - - - - - - - - - -
12.08.2018 10:00:00 26,4 19,3 14 8 23 12 ENE 1018,3 12 31 0,0
12.08.2018 09:00:00 - - - - - - - - - - -
12.08.2018 08:00:00 24,4 18,5 5 3 11 6 NE 1017,9 13 0 -
12.08.2018 07:00:00 24,6 18,5 6 3 16 8 NNE 1017,5 13 0 0,0
12.08.2018 06:00:00 24,7 18,6 7 4 16 9 NE 1017,5 11 0 0,0
12.08.2018 05:00:00 24,9 18,6 6 4 20 11 NE 1017,8 11 0 0,0
12.08.2018 04:00:00 24,8 19,0 8 5 23 12 NE 1018,2 12 0 0,0
12.08.2018 03:00:00 24,6 19,4 10 5 32 18 NE 1018,6 10 0 0,0
12.08.2018 02:00:00 25,1 18,5 10 5 23 12 ENE 1019,1 9 0 -
12.08.2018 01:00:00 25,1 18,5 6 4 16 8 NE 1019,3 13 0 0,0
12.08.2018 00:00:00 25,1 18,5 6 4 18 10 ENE 1019,4 9 0 0,0
11.08.2018 23:00:00 25,3 18,8 7 4 16 9 ENE 1019,3 8 0 0,0
11.08.2018 22:00:00 25,0 19,1 8 4 19 11 ENE 1018,8 8 0 0,0
11.08.2018 21:00:00 26,2 19,6 11 6 19 11 ENE 1018,4 9 34 0,0
11.08.2018 20:00:00 27,8 20,1 13 7 26 14 ENE 1018,0 9 60 -
11.08.2018 19:00:00 28,7 20,5 14 8 27 15 ENE 1018,7 9 60 0,0
11.08.2018 18:00:00 29,1 20,3 14 8 22 12 ENE 1019,2 10 60 0,0
11.08.2018 17:00:00 28,4 20,1 15 8 23 13 ENE 1019,6 12 60 0,0
11.08.2018 16:00:00 29,2 19,8 15 8 25 13 ENE 1020,1 9 58 0,0
11.08.2018 15:00:00 28,7 19,9 12 7 26 14 E 1020,5 16 2 0,0
11.08.2018 14:00:00 28,2 19,4 16 9 31 17 ENE 1020,8 9 39 -
11.08.2018 13:00:00 27,5 19,3 16 9 27 15 ENE 1021,0 12 28 0,0
11.08.2018 12:00:00 27,0 19,6 16 9 29 16 ENE 1021,5 11 2 0,0
11.08.2018 11:00:00 25,5 19,6 14 7 26 14 ENE 1021,5 11 0 0,0
11.08.2018 10:00:00 26,0 19,6 8 5 23 13 ENE 1021,5 11 0 0,0
11.08.2018 09:00:00 26,0 19,8 10 5 24 13 NE 1021,1 13 0 0,0
11.08.2018 08:00:00 24,8 19,8 9 5 19 11 NE 1020,5 12 0 -
11.08.2018 07:00:00 24,8 19,6 6 4 20 11 ENE 1020,1 10 0 0,0
11.08.2018 06:00:00 24,3 19,1 8 5 17 9 ENE 1020,2 9 0 0,0
11.08.2018 05:00:00 25,1 19,5 11 6 19 11 ENE 1020,3 5 0 0,0
11.08.2018 04:00:00 25,9 19,6 8 4 21 12 ENE 1020,7 11 0 0,0
11.08.2018 03:00:00 25,6 19,0 9 5 27 15 NE 1021,1 13 0 0,0
11.08.2018 02:00:00 25,5 17,7 15 8 29 16 ENE 1021,5 14 0 -
11.08.2018 01:00:00 25,3 15,3 11 6 25 13 NE 1021,5 17 0 0,0
11.08.2018 00:00:00 24,7 13,3 7 4 22 12 NE 1021,3 14 0 0,0
10.08.2018 23:00:00 24,6 16,6 8 4 18 10 NE 1020,9 16 0 0,0
10.08.2018 22:00:00 24,5 17,5 6 4 21 12 ENE 1020,2 13 0 0,0
10.08.2018 21:00:00 25,4 17,6 7 4 22 12 ENE 1019,6 14 38 0,0
10.08.2018 20:00:00 27,3 18,8 12 7 25 14 ENE 1019,2 13 60 -
10.08.2018 19:00:00 28,0 19,2 14 7 32 17 ENE 1019,1 12 60 0,0
10.08.2018 18:00:00 28,4 19,3 9 5 26 14 ENE 1019,1 12 60 0,0
10.08.2018 17:00:00 27,4 18,4 14 8 37 20 ENE 1019,4 13 60 0,0
10.08.2018 16:00:00 27,7 18,4 25 13 42 23 ENE 1019,9 12 50 0,0
10.08.2018 15:00:00 27,1 17,0 25 13 40 22 ENE 1019,9 14 0 0,0
10.08.2018 14:00:00 26,8 17,9 16 8 28 15 E 1019,9 15 42 -
10.08.2018 13:00:00 26,1 19,5 16 9 27 15 E 1019,7 16 60 0,0
10.08.2018 12:00:00 26,7 19,6 14 8 31 17 ENE 1019,8 14 60 0,0
10.08.2018 11:00:00 24,9 18,3 10 5 18 10 ENE 1019,3 17 60 0,0
10.08.2018 10:00:00 23,4 16,0 2 1 12 7 S 1018,2 20 34 0,0
10.08.2018 09:00:00 22,0 15,3 6 4 16 9 NE 1017,8 16 41 0,0
10.08.2018 08:00:00 18,8 13,9 3 2 6 3 SE 1017,3 14 0 -
10.08.2018 07:00:00 19,0 13,4 0 0 10 5 N 1016,8 11 0 0,0
10.08.2018 06:00:00 19,5 13,5 4 2 7 4 NE 1016,7 13 0 0,0
10.08.2018 05:00:00 19,3 13,9 2 1 5 3 W 1016,6 15 0 0,0
10.08.2018 04:00:00 19,8 14,6 1 1 6 3 NNW 1016,4 16 0 0,0
10.08.2018 03:00:00 20,4 14,5 3 2 8 4 NNE 1016,5 15 0 0,0
10.08.2018 02:00:00 21,0 15,1 3 2 8 4 NE 1016,7 11 0 -
10.08.2018 01:00:00 22,1 14,7 3 1 6 4 WSW 1016,6 16 0 0,0
10.08.2018 00:00:00 23,1 14,9 5 3 9 5 ENE 1016,5 15 0 0,0
09.08.2018 23:00:00 24,4 15,1 8 4 16 8 ENE 1016,1 13 0 0,0
09.08.2018 22:00:00 26,3 14,7 7 4 26 14 E 1015,3 15 0 0,0
09.08.2018 21:00:00 32,2 9,0 11 6 29 16 WSW 1014,3 20 45 0,0
09.08.2018 20:00:00 34,7 9,2 16 9 34 19 WSW 1013,7 17 60 -
09.08.2018 19:00:00 35,5 9,8 16 8 39 21 WSW 1013,8 20 60 0,0
09.08.2018 18:00:00 35,4 11,1 20 11 50 27 WSW 1014,0 14 60 0,0
09.08.2018 17:00:00 34,7 11,8 22 12 37 20 WSW 1014,7 16 60 0,0
09.08.2018 16:00:00 32,7 12,8 19 11 38 21 WSW 1015,1 19 43 0,0
09.08.2018 15:00:00 28,6 15,5 23 13 36 20 SW 1015,7 17 0 0,0
09.08.2018 14:00:00 27,3 16,0 23 13 36 19 SW 1016,0 15 37 -
09.08.2018 13:00:00 26,8 15,8 19 11 39 21 SW 1016,2 13 60 0,0
09.08.2018 12:00:00 - - - - - - - - - - -
09.08.2018 11:00:00 25,1 15,2 9 5 14 8 ENE 1015,9 19 60 0,0
09.08.2018 10:00:00 22,3 16,6 5 3 12 6 SSW 1015,8 14 36 0,0
09.08.2018 09:00:00 20,3 16,9 1 1 5 3 WNW 1016,0 13 43 0,0
09.08.2018 08:00:00 19,1 15,5 1 1 6 3 WSW 1015,6 12 0 -
09.08.2018 07:00:00 20,0 16,0 3 2 9 5 ESE 1015,0 10 0 0,0
09.08.2018 06:00:00 21,5 16,9 6 3 21 11 W 1014,6 15 0 0,0
09.08.2018 05:00:00 21,3 18,1 4 2 10 5 WSW 1014,6 8 0 0,0
09.08.2018 04:00:00 22,4 19,2 4 2 9 5 W 1014,8 6 0 0,0
09.08.2018 03:00:00 22,0 18,8 4 2 10 5 SW 1015,3 8 0 0,0
09.08.2018 02:00:00 21,5 18,1 4 2 9 5 WSW 1015,6 8 0 -
09.08.2018 01:00:00 22,1 18,7 4 2 13 7 ENE 1015,6 8 0 0,0

tt = Température de l'air
td = dewpoint
ff = Vitesse du vent
fx = gusts
dd = Direction du vent
ppp = reduced air pressure
vv = visibility
sd = Ensoleillement
rr = Quantités de précipitations

stations d'obs. à proximité